OBJECT E, 43755

Orbit data source: Space-Track

You're viewing an Uncataloged Satellite

Recently launched and/or uncataloged satellites may have evolving metadata. Metadata may include but not limited to: Owner, Maufacturer, Bus, Motor, and Mission.

OBJECT E, 43755 is a satellite owned by NIIPP (CIS) in LEO that was launched on Fri, 30 Nov 2018 UTC launched from the Plesetsk Missile And Space Complex (PKMTR). Unknown objects in Earth's orbit typically refer to objects detected orbiting the Earth but have not yet been identified or cataloged. These objects could be anything from previously untracked satellites, spent rocket stages, debris from satellite collisions, or even natural meteoroids temporarily captured by Earth's gravity.

Loading next visibility...
OBJECT E details
Identifier
43755, 2018-097E
Orbit
LEO
Last TLE update21 hours ago
Origin
Flag of CISNIIPP (CIS)
ManufacturerNIIPP
MissionSpacecraft
Bus & MotorUnknown
MassUnknown
Launch date (UTC)
2018-11-30 (6 years ago)
Launch vehicleUnknown
Launch site
Plesetsk Missile And Space Complex (PKMTR)
Object typeUnknown
Shape & HBRBox, 0.2 m
Radar Cross Section0.060 m², Small (<0.1 m²)

Expand to show TLE details & history

TLE from 21 hours ago
0 OBJECT E
1 43755U 18097E   24360.57640787  .00000033  00000-0  78748-4 0  9992
2 43755  82.5142  95.5295 0217278 117.8910 244.4383 12.80887280283653
Epoch: 2024-12-25T13:50Z
Definitive object data (Epoch: 2024-12-25T13:50:01.639Z)
Latitude-0.00004°
Longitude153.45449°
Altitude1,415.938 km
Speed7.118 km/s
True Right ascension06h 22m 07s
True Declination0° 00' 00"
Sunlit
Object was in full shadow at TLE epoch
Visualization TLE readout
Latitude68.08667°
Longitude-46.09833°
Altitude1,182.611 km
Speed7.347 km/s
Apparent Right ascension20h 33m 35s
Apparent Declination25° 39' 30"
Sunlit
Object is in daylight
Visualization observer readout
Local Sidereal Time10:22:31
Azimuth25.982° NE
Elevation-19.687°
Doppler factor1
Orbital elements
Apogee altitude1,502.793 km
Perigee altitude1,167.606 km
Semi-major axis7,713.337 km
Eccentricity0.0217278
Inclination82.5142°
RAAN95.5295°
Arg. of periapsis117.891°
True anomaly242.21876°
Mean anomaly244.4383°
Eccentric anomaly243.32588°
Mean motion3.20391 °/min
BSTAR0.000078748
Orbital period112.36 mins
Loading maneuver chart data...
Loading historical data...
Loading historical data...
Loading historical data...
Loading historical data...
Loading historical data...
Loading historical data...
Loading historical data...
Other satellites on launch #97 in the year 2018 (2018-11-30 UTC)

OBJECT E Visibility forecast

Observer location: undefined°, undefined

Span
Click to sort rows by Start time (UTC) header in descending order
Start Az.
Max El. time (UTC)
Max El. Az.
Max El.
End time (UTC)
End Az.
7 mins2024-12-26 16:42:14.268Z33.632° NE2024-12-26 16:45:14.268Z60.908° ENE16.171°2024-12-26 16:49:14.268Z97.745° ESE
12 mins2024-12-26 18:34:14.268Z349.025° N2024-12-26 18:40:14.268Z227.599° WSW44.256°2024-12-26 18:46:14.268Z180.071° SSW
6 mins2024-12-27 05:22:14.268Z100.931° ESE2024-12-27 05:25:14.268Z76.139° E14.148°2024-12-27 05:28:14.268Z51.743° ENE
14 mins2024-12-27 07:10:14.268Z184.843° SSW2024-12-27 07:17:14.268Z48.878° ENE44.99°2024-12-27 07:24:14.268Z7.999° NNE
7 mins2024-12-27 09:08:14.268Z267.735° W2024-12-27 09:11:14.268Z293.099° NW15.641°2024-12-27 09:15:14.268Z327.327° NNW
|